Regional Weather Roundup
Issued by NWS Northern Indiana

Home | Current Version | Previous Version | Text Only | Print | Product List | Glossary Off
Versions: 1 2 3 4 5 6 7 8 9 10 11 12 13 14 15 16 17 18 19 20 21 22 23 24 25 26 27 28 29 30 31 32 33 34 35 36 37 38 39 40 41 42 43 44 45 46 47 48 49 50

000
ASUS43 KIWX 302010
RWRIWX

KIWX WEATHER ROUNDUP
NATIONAL WEATHER SERVICE NORTHERN INDIANA
300 PM EST FRI JAN 30 2015

NOTE: "FAIR" INDICATES FEW OR NO CLOUDS BELOW 12,000 FEET WITH NO
SIGNIFICANT WEATHER AND/OR OBSTRUCTIONS TO VISIBILITY.

* THESE STATIONS ARE NOT UNDER NWS QUALITY CONTROL. THEY ALSO MAY NOT
  REPORT WEATHER SUCH AS PRECIPITATION OR FOG.

INZ001>027-302100-
NORTHERN INDIANA

CITY           SKY/WX    TMP DP  RH WIND       PRES   REMARKS
GARY*          MOSUNNY   30  12  47 N5        30.48F WCI  25
VALPARAISO     MOSUNNY   27  13  55 W9        30.47S WCI  18
MICHIGAN CITY* CLOUDY    27  10  50 N9        30.48S WCI  17
LAPORTE*       MOSUNNY   27  15  61 NW9       30.47S WCI  18
KNOX*          PTSUNNY   28   1  31 N8        30.46S WCI  20
SOUTH BEND     CLOUDY    26  17  68 N9        30.46F WCI  17
ELKHART*       FLURRIES  25  10  54 NW6       30.46F WCI  18
GOSHEN         CLOUDY    25  14  63 NW9       30.44F WCI  15
MONTICELLO*    PTSUNNY   28  18  65 NW8       30.47R WCI  20
LOGANSPORT*    MOSUNNY   28  18  64 NW6       30.47R WCI  22
ROCHESTER*     PTSUNNY   30  19  64 NW10      30.45S WCI  21
WARSAW*        CLOUDY    27  16  63 N7        30.45S WCI  19
ANGOLA*        MOSUNNY   21   9  58 VRB3      30.43R
FORT WAYNE     PTSUNNY   26  13  57 W12       30.45S WCI  16
HUNTINGTON*    CLOUDY    25  10  52 NW10      30.45S WCI  15
PERU/GRISSOM   PTSUNNY   28  17  63 N7        30.44F WCI  21
MARION*        CLOUDY    26  16  65 NW8       30.46S WCI  18

$$
INZ028>050-302100-
CENTRAL INDIANA

CITY           SKY/WX    TMP DP  RH WIND       PRES   REMARKS
LAFAYETTE      PTSUNNY   30  16  56 NW8       30.48S WCI  22
KOKOMO*        CLOUDY    28  18  64 NW8       30.45S WCI  20
MUNCIE*        PTSUNNY   26  16  65 N8        30.43F WCI  18
INDIANAPOLIS   PTSUNNY   30  15  53 NW10      30.45S WCI  21

$$
MIZ043>046-050>051-056>058-064>065-071>073-077>080-302100-
SOUTHWEST LOWER MICHIGAN

CITY           SKY/WX    TMP DP  RH WIND       PRES   REMARKS
BATTLE CREEK   MOSUNNY   23   9  55 NW10      30.43S WCI  12
BENTON HARBOR  CLOUDY    24  17  74 VRB5      30.46F WCI  18
COLDWATER*     MOSUNNY   23   8  53 NW7       30.43S WCI  14
HILLSDALE*     MOSUNNY   22   8  56 NW8       30.40S WCI  12
HOLLAND        CLOUDY    24  12  60 NW7       30.45F WCI  16
GRAND RAPIDS   PTSUNNY   23   9  55 N5        30.43F WCI  17
KALAMAZOO      FAIR      25   9  50 N7        30.43F WCI  17
STURGIS*       MOSUNNY   25  10  54 CALM      30.43S
THREE RIVERS*  FAIR      25  11  55 NW8       30.44F WCI  16

$$
OHZ001>008-015>018-024>025-302100-
NORTHWEST OHIO

CITY           SKY/WX    TMP DP  RH WIND       PRES   REMARKS
WAUSEON*       FAIR      23   9  54 W12       30.43S WCI  12
DEFIANCE       SUNNY     25   9  50 NW8       30.45S WCI  16
FINDLAY        MOSUNNY   23   8  52 NW9       30.42S WCI  13
TOLEDO EXPRESS MOSUNNY   23   8  52 N9        30.44S WCI  13
TOLEDO METCALF SUNNY     24   7  48 NW9       30.45S WCI  14
LIMA           PTSUNNY   24  10  55 N10       30.42S WCI  14

$$
AND FOR LAKE MICHIGAN COASTAL AND OPEN LAKE BUOY OBSERVATIONS

STATION/POSITION TEMP    WIND        PRES    VSBY  WAVE
                 AIR SEA DIR/SP/G                  HT/PER
                 (F)     (DEG/KT/KT) (MB)    (MI)  (FT/S)
CALUMET HARBOR    26      20/  7/  9   N/A
MICHIGAN CITY     27     330/ 11/ 13   N/A
SAINT JOSEPH      25     330/  6/ 10 1031.5S
SAINT JOSEPH CG                      1032.1      6   3

$$
&&


USA.gov is the U.S. government's official web portal to all federal, state and local government web resources and services.